Location: Chèvreville
(49.1099°N, 2.8495°E)
Time: 07:37:28
(UTC+00:00)

Cosmos 614 Rocket - Pass Details

Date: 28 January 2023
Orbit: 733 x 762 km, 74.1° (Epoch: 22 March)

Event Time Altitude Azimuth Distance (km) Brightness Sun altitude
Rises 17:35:26 0° 202° (SSW) 3,212 7.8 -9.5°
Reaches altitude 10° 17:37:48 10° 203° (SSW) 2,289 7.0 -9.8°
Maximum altitude 17:43:01 87° 293° (WNW) 767 4.0 -10.7°
Drops below altitude 10° 17:48:14 10° 23° (NNE) 2,294 6.1 -11.5°
Enters shadow 17:50:21 - 24° (NNE) 3,115 6.8 -11.8°
